Time,TemperatureF,DewpointF,PressureIn,WindDirection,WindDirectionDegrees,WindSpeedMPH,WindSpeedGustMPH,Humidity,HourlyPrecipIn,Conditions,Clouds,dailyrainin,SolarRadiationWatts/m^2,SoftwareType,DateUTC
2013-03-20 00:00:00,16.0,7.0,-100.00,WSW,247,7.0,-999.0,65,-99.99,,,-99.99,0.000000,,2013-03-20 05:00:00,
2013-03-20 00:43:00,16.0,7.0,-100.00,WSW,247,7.0,-999.0,65,-99.99,,,-99.99,0.000000,,2013-03-20 05:43:00,
2013-03-20 00:53:00,16.0,7.0,-100.00,WSW,247,7.0,-999.0,65,-99.99,,,-99.99,0.000000,,2013-03-20 05:53:00,
2013-03-20 01:00:00,16.0,6.0,-100.00,WSW,247,8.0,-999.0,62,-99.99,,,-99.99,0.000000,,2013-03-20 06:00:00,
2013-03-20 01:43:00,16.0,6.0,-100.00,WSW,247,8.0,-999.0,62,-99.99,,,-99.99,0.000000,,2013-03-20 06:43:00,
2013-03-20 01:53:00,16.0,6.0,-100.00,WSW,247,8.0,-999.0,62,-99.99,,,-99.99,0.000000,,2013-03-20 06:53:00,
2013-03-20 02:00:00,15.0,5.0,-100.00,WSW,247,7.0,-999.0,61,-99.99,,,-99.99,0.000000,,2013-03-20 07:00:00,
2013-03-20 02:42:00,15.0,5.0,-100.00,WSW,247,7.0,-999.0,61,-99.99,,,-99.99,0.000000,,2013-03-20 07:42:00,
2013-03-20 02:52:00,15.0,5.0,-100.00,WSW,247,7.0,-999.0,61,-99.99,,,-99.99,0.000000,,2013-03-20 07:52:00,
2013-03-20 03:00:00,14.0,4.0,-100.00,WSW,247,7.0,-999.0,63,-99.99,,,-99.99,0.000000,,2013-03-20 08:00:00,
2013-03-20 03:42:00,14.0,4.0,-100.00,WSW,247,7.0,-999.0,63,-99.99,,,-99.99,0.000000,,2013-03-20 08:42:00,
2013-03-20 03:52:00,14.0,4.0,-100.00,WSW,247,7.0,-999.0,63,-99.99,,,-99.99,0.000000,,2013-03-20 08:52:00,
2013-03-20 04:00:00,12.0,3.0,-100.00,WSW,247,7.0,-999.0,66,-99.99,,,-99.99,0.000000,,2013-03-20 09:00:00,
2013-03-20 04:43:00,12.0,3.0,-100.00,WSW,247,7.0,-999.0,66,-99.99,,,-99.99,0.000000,,2013-03-20 09:43:00,
2013-03-20 04:53:00,12.0,3.0,-100.00,WSW,247,7.0,-999.0,66,-99.99,,,-99.99,0.000000,,2013-03-20 09:53:00,
2013-03-20 05:00:00,11.0,2.0,-100.00,WSW,247,8.0,-999.0,67,-99.99,,,-99.99,0.000000,,2013-03-20 10:00:00,
2013-03-20 05:43:00,11.0,2.0,-100.00,WSW,247,8.0,-999.0,67,-99.99,,,-99.99,0.000000,,2013-03-20 10:43:00,
2013-03-20 05:53:00,11.0,2.0,-100.00,WSW,247,8.0,-999.0,67,-99.99,,,-99.99,0.000000,,2013-03-20 10:53:00,
2013-03-20 06:00:00,10.0,2.0,-100.00,WSW,247,8.0,-999.0,69,-99.99,,,-99.99,0.000000,,2013-03-20 11:00:00,
2013-03-20 06:42:00,10.0,2.0,-100.00,WSW,247,8.0,-999.0,69,-99.99,,,-99.99,0.000000,,2013-03-20 11:42:00,
2013-03-20 06:52:00,10.0,2.0,-100.00,WSW,247,8.0,-999.0,69,-99.99,,,-99.99,0.000000,,2013-03-20 11:52:00,
2013-03-20 07:00:00,9.0,1.0,-100.00,WSW,247,7.0,-999.0,70,-99.99,,,-99.99,1.160000,,2013-03-20 12:00:00,
2013-03-20 07:43:00,9.0,1.0,-100.00,WSW,247,7.0,-999.0,70,-99.99,,,-99.99,1.160000,,2013-03-20 12:43:00,
2013-03-20 07:52:00,9.0,1.0,-100.00,WSW,247,7.0,-999.0,70,-99.99,,,-99.99,1.160000,,2013-03-20 12:52:00,
2013-03-20 08:00:00,8.0,1.0,-100.00,WSW,247,7.0,-999.0,70,-99.99,,,-99.99,25.520000,,2013-03-20 13:00:00,
2013-03-20 08:43:00,8.0,1.0,-100.00,WSW,247,7.0,-999.0,70,-99.99,,,-99.99,25.520000,,2013-03-20 13:43:00,
2013-03-20 08:53:00,8.0,1.0,-100.00,WSW,247,7.0,-999.0,70,-99.99,,,-99.99,25.520000,,2013-03-20 13:53:00,
2013-03-20 09:00:00,10.0,1.0,-100.00,WSW,247,7.0,-999.0,67,-99.99,,,-99.99,272.600006,,2013-03-20 14:00:00,
2013-03-20 09:43:00,10.0,1.0,-100.00,WSW,247,7.0,-999.0,67,-99.99,,,-99.99,272.600006,,2013-03-20 14:43:00,
2013-03-20 09:53:00,10.0,1.0,-100.00,WSW,247,7.0,-999.0,67,-99.99,,,-99.99,272.600006,,2013-03-20 14:53:00,
2013-03-20 10:00:00,12.0,2.0,-100.00,WSW,247,7.0,-999.0,64,-99.99,,,-99.99,458.200012,,2013-03-20 15:00:00,
2013-03-20 10:43:00,12.0,2.0,-100.00,WSW,247,7.0,-999.0,64,-99.99,,,-99.99,458.200012,,2013-03-20 15:43:00,
2013-03-20 10:53:00,12.0,2.0,-100.00,WSW,247,7.0,-999.0,64,-99.99,,,-99.99,458.200012,,2013-03-20 15:53:00,
2013-03-20 11:00:00,15.0,4.0,-100.00,WSW,247,6.0,-999.0,61,-99.99,,,-99.99,611.320007,,2013-03-20 16:00:00,
2013-03-20 11:43:00,15.0,4.0,-100.00,WSW,247,6.0,-999.0,61,-99.99,,,-99.99,611.320007,,2013-03-20 16:43:00,
2013-03-20 11:53:00,15.0,4.0,-100.00,WSW,247,6.0,-999.0,61,-99.99,,,-99.99,611.320007,,2013-03-20 16:53:00,
2013-03-20 12:00:00,18.0,6.0,-100.00,WSW,247,6.0,-999.0,58,-99.99,,,-99.99,718.039978,,2013-03-20 17:00:00,
2013-03-20 12:42:00,18.0,6.0,-100.00,WSW,247,6.0,-999.0,58,-99.99,,,-99.99,718.039978,,2013-03-20 17:42:00,
2013-03-20 12:53:00,18.0,6.0,-100.00,WSW,247,6.0,-999.0,58,-99.99,,,-99.99,718.039978,,2013-03-20 17:53:00,
2013-03-20 13:00:00,20.0,6.0,-100.00,WNW,292,7.0,-999.0,52,-99.99,,,-99.99,784.159973,,2013-03-20 18:00:00,
2013-03-20 13:43:00,20.0,6.0,-100.00,WNW,292,7.0,-999.0,52,-99.99,,,-99.99,784.159973,,2013-03-20 18:43:00,
2013-03-20 13:53:00,20.0,6.0,-100.00,WNW,292,7.0,-999.0,52,-99.99,,,-99.99,784.159973,,2013-03-20 18:53:00,
2013-03-20 14:00:00,21.0,5.0,-100.00,WNW,292,8.0,-999.0,48,-99.99,,,-99.99,633.359985,,2013-03-20 19:00:00,
2013-03-20 14:42:00,21.0,5.0,-100.00,WNW,292,8.0,-999.0,48,-99.99,,,-99.99,633.359985,,2013-03-20 19:42:00,
2013-03-20 14:53:00,21.0,5.0,-100.00,WNW,292,8.0,-999.0,48,-99.99,,,-99.99,633.359985,,2013-03-20 19:53:00,
2013-03-20 15:00:00,22.0,6.0,-100.00,WNW,292,6.0,-999.0,48,-99.99,,,-99.99,610.159973,,2013-03-20 20:00:00,
2013-03-20 15:32:00,22.0,6.0,-100.00,WNW,292,6.0,-999.0,48,-99.99,,,-99.99,610.159973,,2013-03-20 20:32:00,
2013-03-20 15:43:00,22.0,6.0,-100.00,WNW,292,6.0,-999.0,48,-99.99,,,-99.99,610.159973,,2013-03-20 20:43:00,
2013-03-20 15:53:00,22.0,6.0,-100.00,WNW,292,6.0,-999.0,48,-99.99,,,-99.99,610.159973,,2013-03-20 20:53:00,
2013-03-20 16:00:00,23.0,7.0,-100.00,West,270,6.0,-999.0,49,-99.99,,,-99.99,516.200012,,2013-03-20 21:00:00,
2013-03-20 16:42:00,23.0,7.0,-100.00,West,270,6.0,-999.0,49,-99.99,,,-99.99,516.200012,,2013-03-20 21:42:00,
2013-03-20 16:53:00,23.0,7.0,-100.00,West,270,6.0,-999.0,49,-99.99,,,-99.99,516.200012,,2013-03-20 21:53:00,
2013-03-20 18:00:00,22.0,9.0,-100.00,NW,315,5.0,-999.0,56,-99.99,,,-99.99,148.479996,,2013-03-20 23:00:00,
2013-03-20 18:43:00,22.0,9.0,-100.00,NW,315,5.0,-999.0,56,-99.99,,,-99.99,148.479996,,2013-03-20 23:43:00,
2013-03-20 18:53:00,22.0,9.0,-100.00,NW,315,5.0,-999.0,56,-99.99,,,-99.99,148.479996,,2013-03-20 23:53:00,
2013-03-20 19:00:00,21.0,11.0,-100.00,NNW,337,7.0,-999.0,64,-99.99,,,-99.99,22.040001,,2013-03-21 00:00:00,
2013-03-20 19:42:00,21.0,11.0,-100.00,NNW,337,7.0,-999.0,64,-99.99,,,-99.99,22.040001,,2013-03-21 00:42:00,
2013-03-20 19:52:00,21.0,11.0,-100.00,NNW,337,7.0,-999.0,64,-99.99,,,-99.99,22.040001,,2013-03-21 00:52:00,
2013-03-20 20:00:00,19.0,16.0,-100.00,NW,315,6.0,-999.0,87,-99.99,,,-99.99,0.000000,,2013-03-21 01:00:00,
2013-03-20 20:42:00,19.0,16.0,-100.00,NW,315,6.0,-999.0,87,-99.99,,,-99.99,0.000000,,2013-03-21 01:42:00,
2013-03-20 20:53:00,19.0,16.0,-100.00,NW,315,6.0,-999.0,87,-99.99,,,-99.99,0.000000,,2013-03-21 01:53:00,
2013-03-20 21:00:00,19.0,15.0,-100.00,NW,315,6.0,-999.0,84,-99.99,,,-99.99,0.000000,,2013-03-21 02:00:00,
2013-03-20 22:00:00,19.0,13.0,-100.00,NNW,337,8.0,-999.0,76,-99.99,,,-99.99,0.000000,,2013-03-21 03:00:00,
2013-03-20 22:43:00,19.0,13.0,-100.00,NNW,337,8.0,-999.0,76,-99.99,,,-99.99,0.000000,,2013-03-21 03:43:00,
2013-03-20 22:53:00,19.0,13.0,-100.00,NNW,337,8.0,-999.0,76,-99.99,,,-99.99,0.000000,,2013-03-21 03:53:00,
2013-03-20 23:00:00,18.0,11.0,-100.00,NW,315,8.0,-999.0,72,-99.99,,,-99.99,0.000000,,2013-03-21 04:00:00,
2013-03-20 23:43:00,18.0,11.0,-100.00,NW,315,8.0,-999.0,72,-99.99,,,-99.99,0.000000,,2013-03-21 04:43:00,
2013-03-20 23:53:00,18.0,11.0,-100.00,NW,315,8.0,-999.0,72,-99.99,,,-99.99,0.000000,,2013-03-21 04:53:00,